Weather observations for the past three days for
Midland, Midland International Airport
Metric (Imperial)
Date Time (cdt) Wind (kph) Vis. (km) Weather Sky Cond. Temperature (ºC) Relative Humidity Wind Chill (°C) Heat Index (°C) Pressure Precipitation (cm)
Air Dwpt 6 hour altimeter (cm) sea level (mb) 1 hr 3 hr 6 hr
Max. Min.
24 22:53 E 11 16.09 Fair CLR 25 -3.3 15% 25 75.79 1005.3
24 21:53 E 15 16.09 Fair CLR 26.1 -3.3 14% 25 75.74 1004.9
24 20:53 E 11 16.09 Fair CLR 28.9 -4.4 11% 27 75.74 1004.7
24 19:53 NE 11 16.09 Fair CLR 32.2 -4.4 9% 30 75.72 1004.2
24 18:53 NE 11 16.09 Fair CLR 33.3 -5 33.9 30 8% 31 75.69 1004.4
24 17:53 Vrbl 7 16.09 Fair CLR 32.8 -5 8% 30 75.72 1004.5
24 16:53 Vrbl 6 16.09 Fair CLR 33.3 -4.4 8% 31 75.77 1005.2
24 15:53 N 13 16.09 Fair CLR 32.8 -4.4 9% 30 75.82 1005.8
24 14:53 N 11 16.09 Fair CLR 32.2 -5 9% 30 75.87 1006.4
24 13:53 NE 11 16.09 Fair CLR 31.1 -1.1 12% 29 75.9 1006.7
24 12:53 N 22 G 33 16.09 Fair CLR 30 -2.2 31.1 18.3 12% 28 75.92 1007.1
24 11:53 N 26 16.09 Fair CLR 30 -5 10% 28 75.9 1006.9
24 10:53 N 22 G 43 16.09 Fair CLR 30.6 -6.7 8% 29 75.9 1006.6
24 09:53 N 11 16.09 Fair CLR 27.2 -4.4 12% 26 75.87 1006.5
24 08:53 W 9 16.09 Fair CLR 24.4 -3.9 15% 24 75.82 1005.7
24 07:53 SW 15 16.09 Fair CLR 21.7 0 24% 75.79 1005.2
24 06:53 SW 13 16.09 Fair CLR 18.9 2.8 23.9 17.2 34% 75.72 1004.3
24 05:53 W 13 16.09 Fair CLR 18.9 3.9 37% 75.67 1003.7
24 04:53 SW 17 16.09 Fair CLR 21.1 5.6 37% 75.67 1003.5
24 03:53 SW 17 16.09 Fair CLR 22.2 0 23% 75.67 1003.5
24 02:53 W 15 16.09 Fair CLR 21.1 -5 17% 75.64 1003.3
24 01:53 S 17 16.09 Fair CLR 22.8 -10.6 10% 75.64 1003.1
24 00:53 W 9 16.09 Fair CLR 22.8 -9.4 35 22.8 11% 75.59 1002.5
23 23:53 W 9 16.09 Fair CLR 24.4 -10.6 9% 24 75.62 1002.6
23 22:53 W 11 16.09 Fair CLR 25 -10.6 9% 24 75.59 1002.7
23 21:53 W 11 16.09 Fair CLR 27.8 -10.6 7% 26 75.57 1002.3
23 20:53 W 15 16.09 Fair CLR 30.6 -12.2 5% 29 75.51 1001.7
23 19:53 W 24 G 43 16.09 Fair CLR 33.9 -12.8 4% 31 75.49 1001.1
23 18:53 W 28 G 46 16.09 Fair CLR 35 -12.2 36.1 33.3 4% 32 75.49 1001.3
23 17:53 W 33 G 48 16.09 Fair and Breezy CLR 35.6 -12.2 4% 33 75.51 1001.5
23 16:53 W 30 G 41 16.09 Fair CLR 35.6 -11.7 4% 33 75.57 1002.1
23 15:53 W 30 G 41 16.09 Fair CLR 35.6 -11.1 4% 33 75.62 1002.9
23 14:53 W 26 G 44 16.09 Fair CLR 35 -6.1 7% 32 75.67 1003.4
23 13:53 W 28 G 37 16.09 Fair CLR 34.4 -2.8 9% 32 75.72 1004.2
23 12:53 W 20 G 39 16.09 Fair CLR 33.3 -5 33.9 18.9 8% 31 75.74 1004.7
23 11:53 NW 26 G 37 16.09 Fair CLR 32.8 2.2 14% 30 75.79 1005.2
23 10:53 W 17 16.09 Fair CLR 30.6 11.1 30% 29 75.82 1005.5
23 09:53 SW 22 12.87 Fair CLR 26.1 21.1 74% 28 75.84 1006.2
23 08:53 S 11 9.66 Overcast with Haze OVC010 22.2 19.4 84% 75.84 1006.8
23 07:53 S 7 9.66 Fog/Mist FEW015 20 18.3 90% 75.82 1006.0
23 06:53 S 9 14.48 Partly Cloudy SCT010 18.9 17.8 22.2 18.9 93% 75.82 1005.9
23 05:53 S 9 16.09 Fair CLR 18.9 17.8 93% 75.82 1005.8
23 04:53 SE 13 16.09 Mostly Cloudy BKN008 19.4 17.2 87% 75.82 1005.7
23 03:53 SE 13 16.09 Fair CLR 20 17.2 84% 75.84 1006.0
23 02:53 SE 11 16.09 Fair CLR 21.1 16.7 76% 75.84 1006.1
23 01:53 SE 20 16.09 Partly Cloudy SCT015 21.7 16.7 73% 75.84 1006.3
23 00:53 SE 20 16.09 Fair CLR 22.2 18.3 34.4 22.2 79% 75.87 1006.8
22 23:53 SE 20 16.09 Fair CLR 23.3 18.9 76% 75.9 1007.0
22 22:53 E 22 16.09 Fair CLR 24.4 17.8 67% 25 75.87 1006.9
22 21:53 E 22 16.09 Fair CLR 25.6 17.8 62% 27 75.82 1005.9
22 20:53 E 33 16.09 Fair and Breezy CLR 26.7 17.2 56% 27 75.77 1005.3
22 19:53 E 19 G 26 16.09 Fair CLR 30.6 15.6 40% 30 75.72 1004.4
22 18:53 NW 17 16.09 Fair CLR 34.4 0.6 35 29.4 12% 32 75.67 1003.7
22 17:53 W 20 G 39 16.09 Fair CLR 34.4 6.1 17% 32 75.67 1003.6
22 16:53 W 28 G 39 16.09 Fair CLR 34.4 8.9 21% 32 75.72 1004.2
22 15:53 N 6 16.09 Fair CLR 34.4 10 22% 33 75.74 1004.4
22 14:53 Calm 16.09 Fair CLR 31.7 16.7 41% 32 75.79 1005.5
22 13:53 NW 15 16.09 Fair CLR 31.1 17.2 43% 32 75.87 1006.4
22 12:53 E 11 16.09 Fair CLR 29.4 15.6 30 22.2 43% 29 75.92 1007.2
22 11:53 NE 20 16.09 Fair CLR 27.8 12.2 38% 27 75.95 1007.7
22 10:53 NE 22 16.09 Fair CLR 25.6 8.9 35% 26 75.95 1007.8
22 09:53 N 20 16.09 Partly Cloudy FEW018 SCT025 25.6 15.6 54% 26 75.95 1007.7
22 08:53 SW 19 9.66 Fair with Haze CLR 26.1 21.7 77% 28 75.87 1006.4
22 07:53 S 17 12.87 Fair CLR 23.9 20.6 82% 24 75.84 1006.1
22 06:53 S 13 16.09 Fair CLR 22.2 16.7 22.8 20.6 71% 75.82 1005.9
22 05:53 SW 7 16.09 Fair CLR 21.1 10 49% 75.77 1005.3
22 04:53 SW 11 16.09 Fair CLR 21.7 8.9 44% 75.77 1005.1
22 03:53 SW 7 16.09 Fair CLR 21.7 10.6 49% 75.79 1005.3
22 02:53 S 13 16.09 Fair CLR 22.2 7.8 40% 75.77 1005.1
22 01:53 SE 9 16.09 Fair CLR 22.2 3.9 30% 75.79 1005.5
22 00:53 S 13 16.09 Fair CLR 23.3 3.3 31.1 22.8 27% 75.82 1005.8
21 23:53 SE 9 16.09 Fair CLR 23.9 3.3 26% 25 75.79 1005.5
Date Time (cdt) Wind (kph) Vis. (km) Weather Sky Cond. Air Dwpt Max. Min. Relative Humidity Wind Chill (°C) Heat Index (°C) altimeter (cm) sea level (mb) 1 hr 3 hr 6 hr
6 hour
Temperature (ºC) Pressure Precipitation (cm)